TimeMST,TemperatureF,Dew PointF,Humidity,Sea Level PressureIn,VisibilityMPH,Wind Direction,Wind SpeedMPH,Gust SpeedMPH,PrecipitationIn,Events,Conditions,WindDirDegrees,DateUTC
12:15 AM,53.6,32.0,44,29.94,10.0,ESE,8.1,-,N/A,,Clear,110,2012-11-26 07:15:00
12:35 AM,51.8,32.0,47,29.94,10.0,ESE,5.8,-,N/A,,Clear,120,2012-11-26 07:35:00
12:55 AM,53.6,32.0,44,29.94,10.0,ESE,6.9,-,N/A,,Clear,110,2012-11-26 07:55:00
1:15 AM,51.8,32.0,47,29.94,10.0,ESE,6.9,-,N/A,,Clear,110,2012-11-26 08:15:00
1:35 AM,51.8,32.0,47,29.95,10.0,ESE,5.8,-,N/A,,Clear,110,2012-11-26 08:35:00
1:55 AM,51.8,32.0,47,29.95,10.0,ESE,6.9,-,N/A,,Clear,120,2012-11-26 08:55:00
2:15 AM,51.8,33.8,50,29.95,10.0,ESE,5.8,-,N/A,,Clear,110,2012-11-26 09:15:00
2:35 AM,51.8,33.8,50,29.96,10.0,ESE,6.9,-,N/A,,Clear,120,2012-11-26 09:35:00
2:55 AM,51.8,33.8,50,29.96,10.0,East,5.8,-,N/A,,Clear,100,2012-11-26 09:55:00
3:15 AM,51.8,33.8,50,29.96,10.0,East,6.9,-,N/A,,Clear,100,2012-11-26 10:15:00
3:35 AM,51.8,33.8,50,29.96,10.0,East,8.1,-,N/A,,Clear,100,2012-11-26 10:35:00
3:55 AM,51.8,33.8,50,29.96,10.0,East,6.9,-,N/A,,Clear,100,2012-11-26 10:55:00
4:15 AM,51.8,33.8,50,29.96,10.0,East,5.8,-,N/A,,Clear,100,2012-11-26 11:15:00
4:35 AM,51.8,33.8,50,29.97,10.0,ESE,4.6,-,N/A,,Clear,120,2012-11-26 11:35:00
4:55 AM,50.0,33.8,54,29.98,10.0,SSE,3.5,-,N/A,,Clear,150,2012-11-26 11:55:00
5:15 AM,46.4,32.0,57,29.98,10.0,SE,5.8,-,N/A,,Clear,140,2012-11-26 12:15:00
6:48 AM,51.8,33.8,50,30.02,20.0,ESE,5.8,-,N/A,,Partly Cloudy,120,2012-11-26 13:48:00
7:47 AM,48.2,33.8,58,30.04,35.0,East,4.6,-,N/A,,Partly Cloudy,100,2012-11-26 14:47:00
8:47 AM,57.2,35.6,44,30.07,30.0,ESE,4.6,-,N/A,,Partly Cloudy,110,2012-11-26 15:47:00
9:47 AM,62.6,35.6,37,30.08,30.0,SE,4.6,-,N/A,,Scattered Clouds,130,2012-11-26 16:47:00
10:47 AM,66.2,30.2,26,30.08,30.0,SE,4.6,-,N/A,,Scattered Clouds,140,2012-11-26 17:47:00
11:50 AM,73.4,30.2,20,30.06,30.0,Variable,3.5,-,N/A,,Scattered Clouds,0,2012-11-26 18:50:00
12:47 PM,73.4,30.2,20,30.04,30.0,West,4.6,-,N/A,,Scattered Clouds,270,2012-11-26 19:47:00
1:47 PM,75.2,30.2,19,30.02,30.0,Calm,Calm,-,N/A,,Scattered Clouds,0,2012-11-26 20:47:00
2:47 PM,78.8,32.0,18,30.02,35.0,WNW,3.5,-,N/A,,Partly Cloudy,290,2012-11-26 21:47:00
3:47 PM,78.8,32.0,18,30.01,35.0,WNW,3.5,-,N/A,,Partly Cloudy,300,2012-11-26 22:47:00
4:47 PM,75.2,30.2,19,30.02,35.0,Calm,Calm,-,N/A,,Partly Cloudy,0,2012-11-26 23:47:00
5:47 PM,71.6,32.0,23,30.02,20.0,Calm,Calm,-,N/A,,Partly Cloudy,0,2012-11-27 00:47:00
6:47 PM,66.2,32.0,28,30.04,20.0,Calm,Calm,-,N/A,,Partly Cloudy,0,2012-11-27 01:47:00
7:47 PM,60.8,30.2,31,30.05,20.0,East,4.6,-,N/A,,Clear,80,2012-11-27 02:47:00
7:55 PM,60.8,32.0,34,30.06,10.0,East,6.9,-,N/A,,Clear,80,2012-11-27 02:55:00
8:15 PM,59.0,32.0,36,30.06,10.0,East,5.8,-,N/A,,Clear,90,2012-11-27 03:15:00
8:35 PM,57.2,32.0,38,30.08,10.0,East,5.8,-,N/A,,Clear,100,2012-11-27 03:35:00
8:47 PM,57.2,30.2,36,30.08,20.0,East,4.6,-,N/A,,Clear,90,2012-11-27 03:47:00
8:55 PM,57.2,32.0,38,30.08,10.0,ESE,4.6,-,N/A,,Clear,110,2012-11-27 03:55:00
9:15 PM,55.4,32.0,41,30.08,10.0,SE,5.8,-,N/A,,Clear,130,2012-11-27 04:15:00
9:35 PM,53.6,33.8,47,30.09,10.0,South,4.6,-,N/A,,Clear,180,2012-11-27 04:35:00
9:55 PM,55.4,32.0,41,30.10,10.0,ESE,10.4,-,N/A,,Clear,110,2012-11-27 04:55:00
10:15 PM,57.2,33.8,41,30.10,10.0,SE,6.9,-,N/A,,Clear,140,2012-11-27 05:15:00
10:35 PM,57.2,33.8,41,30.10,10.0,ESE,4.6,-,N/A,,Clear,120,2012-11-27 05:35:00
10:55 PM,51.8,32.0,47,30.11,10.0,SSE,5.8,-,N/A,,Clear,150,2012-11-27 05:55:00
11:15 PM,51.8,32.0,47,30.12,10.0,ESE,4.6,-,N/A,,Clear,120,2012-11-27 06:15:00
11:35 PM,51.8,32.0,47,30.12,10.0,ENE,6.9,-,N/A,,Clear,70,2012-11-27 06:35:00
11:55 PM,51.8,32.0,47,30.12,10.0,East,5.8,-,N/A,,Clear,90,2012-11-27 06:55:00